DELTA 1 DEB, 42558

Orbit data source: Space-Track

DELTA 1 DEB, 42558 is space debris in SSO originally from a launch on Sun, 23 Jul 1972 UTC launched from the Air Force Western Test Range (AFWTR). Debris objects in space refer to the collection of defunct objects orbiting the Earth. Examples of debris include non-operational satellites, rocket bodies, and fragments generated from explosions, collisions, or faulty payload assembly.

Loading next visibility...
Identifier
42558, 1972-058JR
Orbit
SSO
Country
Flag of USUS
Related business
Manufacturer
Unknown
Mission
Spacecraft
Bus & Motor
Unknown
Mass
Unknown
Launch date (UTC)
1972-07-23 (54 years ago)
Launch vehicle
Unknown
Launch site
Air Force Western Test Range (AFWTR)
Object type
Payload
Rocket body
Debris
Shape & HBR
Unknown shape, 0.1 m
Radar Cross Section
Small (<0.1 m²)

Expand to show TLE details & history
Last TLE update: 2 days ago

TLE from 2 days ago
0 DELTA 1 DEB
1 42558U 72058JR  26264.15978248  .00000779  00000-0  14310-3 0  9995
2 42558  97.8985 226.2168 0038155  81.4282 279.1244 14.67878378684574
Epoch: 2026-09-21T03:50Z
TLE epoch observation values (Epoch: 2026-09-21T03:50:05.206Z)
Latitude
Longitude
168.6515°
Altitude
666.69 km
Speed
7.526 km/s
True Right ascension
15h 04m 52s
True Declination
0° 00' 00"
Sunlit
Object was in daylight at epoch
Visualization orbit readout
Latitude
Unknown
Longitude
Unknown
Altitude
Unknown
Speed
Unknown
Apparent Right ascension
Unknown
Apparent Declination
Unknown
Sunlit
N/A
Visualization observer readout
Local Sidereal Time
15:08:50
Azimuth
Unknown
Elevation
Unknown
Doppler factor
Unknown
Orbital elements
Apogee altitude
691.779 km
Perigee altitude
638.033 km
Semi-major axis
7,043.043 km
Eccentricity
0.00382
Inclination
97.8985°
RAAN
226.2168°
Arg. of periapsis
81.4282°
True anomaly
278.69239°
Mean anomaly
279.1244°
Eccentric anomaly
278.90843°
Mean motion
3.672 °/min
Orbital period
98.04 mins
BSTAR
0.0001431
Loading maneuver chart data...
Computing Atmospheric mass density...

Documentation

Showing up to 5 results
|